| time (UTC) | temp F | wind direction | speed MPH | gust MPH | rain 1hr in | rain 24hr in | rain mn in | humidity % | barometer mb |
| 20260507195654 | 53 | 275 | 3.0 | 6.0 | 0.00 | 0.00 | 0.00 | 46 | 992.8 |
| 20260507194150 | 51 | 294 | 4.0 | 8.0 | 0.00 | 0.00 | 0.00 | 45 | 992.8 |
| 20260507192646 | 52 | 209 | 4.0 | 9.0 | 0.00 | 0.00 | 0.00 | 46 | 993.0 |
| 20260507191142 | 51 | 246 | 2.0 | 7.0 | 0.00 | 0.00 | 0.00 | 47 | 993.1 |
| 20260507185641 | 51 | 234 | 6.0 | 8.0 | 0.00 | 0.00 | 0.00 | 47 | 993.0 |
| 20260507184139 | 50 | 270 | 9.0 | 10.0 | 0.00 | 0.00 | 0.00 | 46 | 993.2 |
| 20260507182635 | 51 | 173 | 5.0 | 7.0 | 0.00 | 0.00 | 0.00 | 47 | 993.4 |
| 20260507181130 | 51 | 262 | 4.0 | 8.0 | 0.00 | 0.00 | 0.00 | 43 | 993.3 |
| 20260507175625 | 51 | 275 | 8.0 | 9.0 | 0.00 | 0.00 | 0.00 | 43 | 993.2 |
| 20260507174124 | 50 | 285 | 5.0 | 9.0 | 0.00 | 0.00 | 0.00 | 46 | 993.4 |
| 20260507172619 | 49 | 276 | 4.0 | 4.0 | 0.00 | 0.00 | 0.00 | 46 | 993.3 |
| 20260507171115 | 49 | 235 | 8.0 | 10.0 | 0.00 | 0.00 | 0.00 | 45 | 993.7 |
| 20260507165610 | 48 | 274 | 7.0 | 11.0 | 0.00 | 0.00 | 0.00 | 47 | 994.1 |
| 20260507164106 | 49 | 227 | 6.0 | 9.0 | 0.00 | 0.00 | 0.00 | 47 | 994.3 |
| 20260507162601 | 47 | 260 | 7.0 | 9.0 | 0.00 | 0.00 | 0.00 | 49 | 994.4 |
| 20260507161057 | 48 | 240 | 5.0 | 14.0 | 0.00 | 0.00 | 0.00 | 48 | 994.6 |
| 20260507155557 | 49 | 280 | 9.0 | 13.0 | 0.00 | 0.00 | 0.00 | 49 | 994.8 |
| 20260507154054 | 47 | 309 | 7.0 | 11.0 | 0.00 | 0.00 | 0.00 | 52 | 994.9 |
| 20260507152549 | 48 | 300 | 7.0 | 10.0 | 0.00 | 0.00 | 0.00 | 52 | 994.6 |
| 20260507151045 | 47 | 215 | 6.0 | 13.0 | 0.00 | 0.00 | 0.00 | 55 | 994.6 |
| 20260507145545 | 47 | 239 | 6.0 | 10.0 | 0.00 | 0.00 | 0.00 | 56 | 994.2 |
| 20260507144044 | 47 | 256 | 4.0 | 9.0 | 0.00 | 0.00 | 0.00 | 56 | 994.6 |
| 20260507142538 | 46 | 310 | 8.0 | 14.0 | 0.00 | 0.00 | 0.00 | 59 | 994.6 |
| 20260507141034 | 47 | 307 | 8.0 | 14.0 | 0.00 | 0.00 | 0.00 | 58 | 994.6 |
| 20260507135531 | 47 | 247 | 4.0 | 9.0 | 0.00 | 0.00 | 0.00 | 57 | 994.7 |
| 20260507134026 | 46 | 240 | 5.0 | 9.0 | 0.00 | 0.00 | 0.00 | 52 | 994.4 |
| 20260507132522 | 46 | 274 | 4.0 | 11.0 | 0.00 | 0.00 | 0.00 | 56 | 994.5 |
| 20260507131019 | 45 | 220 | 4.0 | 9.0 | 0.00 | 0.00 | 0.00 | 60 | 994.2 |
| 20260507125518 | 45 | 266 | 7.0 | 8.0 | 0.00 | 0.00 | 0.00 | 63 | 994.1 |
| 20260507124015 | 44 | 237 | 3.0 | 7.0 | 0.00 | 0.00 | 0.00 | 66 | 994.1 |
| 20260507122510 | 44 | 248 | 4.0 | 6.0 | 0.00 | 0.00 | 0.00 | 68 | 993.9 |
| 20260507121009 | 43 | 265 | 3.0 | 6.0 | 0.00 | 0.00 | 0.00 | 71 | 994.0 |
| 20260507115505 | 42 | 246 | 4.0 | 6.0 | 0.00 | 0.00 | 0.00 | 74 | 993.9 |
| 20260507114000 | 42 | 266 | 4.0 | 4.0 | 0.00 | 0.00 | 0.00 | 75 | 993.7 |
| 20260507112458 | 41 | 190 | 1.0 | 2.0 | 0.00 | 0.00 | 0.00 | 78 | 993.7 |
| 20260507110953 | 39 | 232 | 1.0 | 3.0 | 0.00 | 0.00 | 0.00 | 80 | 993.5 |
| 20260507105449 | 38 | 239 | 1.0 | 2.0 | 0.00 | 0.00 | 0.00 | 81 | 993.4 |
| 20260507103949 | 38 | 219 | 1.0 | 2.0 | 0.00 | 0.00 | 0.00 | 80 | 993.2 |
| 20260507102445 | 38 | 230 | 0.0 | 4.0 | 0.00 | 0.00 | 0.00 | 79 | 993.2 |
| 20260507100946 | 39 | 250 | 1.0 | 3.0 | 0.00 | 0.00 | 0.00 | 79 | 993.1 |
| 20260507095445 | 39 | 254 | 3.0 | 3.0 | 0.00 | 0.00 | 0.00 | 79 | 993.1 |
| 20260507093940 | 39 | 278 | 0.0 | 2.0 | 0.00 | 0.00 | 0.00 | 79 | 992.9 |
| 20260507092438 | 39 | 257 | 0.0 | 2.0 | 0.00 | 0.00 | 0.00 | 79 | 993.1 |
| 20260507090933 | 39 | 259 | 2.0 | 2.0 | 0.00 | 0.00 | 0.00 | 78 | 993.1 |
| 20260507085429 | 40 | 247 | 2.0 | 4.0 | 0.00 | 0.00 | 0.00 | 77 | 993.3 |
| 20260507083926 | 41 | 254 | 2.0 | 4.0 | 0.00 | 0.00 | 0.00 | 75 | 993.5 |
| 20260507082426 | 41 | 199 | 2.0 | 4.0 | 0.00 | 0.00 | 0.00 | 74 | 993.3 |
| 20260507080923 | 41 | 265 | 2.0 | 3.0 | 0.00 | 0.00 | 0.00 | 73 | 993.3 |
| 20260507075422 | 42 | 244 | 2.0 | 4.0 | 0.00 | 0.00 | 0.00 | 73 | 993.3 |
| 20260507073919 | 42 | 255 | 2.0 | 3.0 | 0.00 | 0.00 | 0.00 | 73 | 993.5 |
| 20260507072416 | 42 | 237 | 1.0 | 2.0 | 0.00 | 0.00 | 0.00 | 71 | 993.4 |
| 20260507070912 | 42 | 291 | 3.0 | 4.0 | 0.00 | 0.00 | 0.00 | 69 | 993.6 |
| 20260507065409 | 42 | 296 | 2.0 | 6.0 | 0.00 | 0.00 | 0.00 | 68 | 993.5 |
| 20260507063908 | 43 | 290 | 3.0 | 6.0 | 0.00 | 0.00 | 0.00 | 66 | 993.6 |
| 20260507062404 | 43 | 290 | 4.0 | 4.0 | 0.00 | 0.00 | 0.00 | 64 | 993.8 |
| 20260507060904 | 44 | 327 | 4.0 | 7.0 | 0.00 | 0.00 | 0.00 | 63 | 993.5 |
| 20260507055404 | 45 | 264 | 5.0 | 8.0 | 0.00 | 0.00 | 0.00 | 61 | 993.6 |
| 20260507053901 | 45 | 275 | 7.0 | 10.0 | 0.00 | 0.00 | 0.00 | 63 | 993.5 |
| 20260507052359 | 45 | 11 | 5.0 | 8.0 | 0.00 | 0.00 | 0.00 | 68 | 993.7 |
| 20260507050857 | 45 | 276 | 2.0 | 3.0 | 0.00 | 0.00 | 0.00 | 68 | 993.6 |
| 20260507045352 | 45 | 250 | 2.0 | 3.0 | 0.00 | 0.00 | 0.00 | 66 | 993.5 |
| 20260507043848 | 45 | 206 | 0.0 | 2.0 | 0.00 | 0.00 | 0.00 | 65 | 993.5 |
| 20260507042343 | 45 | 203 | 0.0 | 1.0 | 0.00 | 0.00 | 0.00 | 64 | 993.6 |
| 20260507040840 | 45 | 215 | 1.0 | 1.0 | 0.00 | 0.00 | 0.00 | 62 | 993.6 |
| 20260507035339 | 46 | 204 | 0.0 | 2.0 | 0.00 | 0.00 | 0.00 | 59 | 993.5 |
| 20260507033837 | 46 | 209 | 0.0 | 2.0 | 0.00 | 0.00 | 0.00 | 60 | 993.5 |
| 20260507032333 | 45 | 180 | 0.0 | 0.0 | 0.00 | 0.00 | 0.00 | 62 | 993.6 |
| 20260507030828 | 46 | 190 | 0.0 | 1.0 | 0.00 | 0.00 | 0.00 | 58 | 993.6 |
| 20260507025326 | 47 | 250 | 2.0 | 3.0 | 0.00 | 0.00 | 0.00 | 55 | 993.7 |
| 20260507023822 | 48 | 256 | 1.0 | 2.0 | 0.00 | 0.00 | 0.00 | 54 | 993.7 |
| 20260507022318 | 48 | 229 | 2.0 | 4.0 | 0.00 | 0.00 | 0.00 | 53 | 993.6 |
| 20260507020814 | 48 | 188 | 2.0 | 2.0 | 0.00 | 0.00 | 0.00 | 51 | 993.3 |
| 20260507015310 | 49 | 253 | 2.0 | 3.0 | 0.00 | 0.00 | 0.00 | 50 | 993.3 |
| 20260507013806 | 49 | 232 | 3.0 | 4.0 | 0.00 | 0.00 | 0.00 | 47 | 993.2 |
| 20260507012305 | 49 | 242 | 2.0 | 3.0 | 0.00 | 0.00 | 0.00 | 47 | 993.1 |
| 20260507010801 | 49 | 223 | 1.0 | 3.0 | 0.00 | 0.00 | 0.00 | 46 | 993.1 |
| 20260507005257 | 50 | 243 | 2.0 | 4.0 | 0.00 | 0.00 | 0.00 | 46 | 993.2 |
| 20260507003754 | 50 | 219 | 2.0 | 3.0 | 0.00 | 0.00 | 0.00 | 45 | 992.9 |
| 20260507002253 | 50 | 203 | 2.0 | 3.0 | 0.00 | 0.00 | 0.00 | 45 | 993.0 |
| 20260507000750 | 50 | 202 | 2.0 | 3.0 | 0.00 | 0.00 | 0.00 | 44 | 992.8 |
| 20260506235249 | 50 | 231 | 1.0 | 6.0 | 0.00 | 0.00 | 0.00 | 44 | 992.7 |
| 20260506233748 | 51 | 273 | 3.0 | 3.0 | 0.00 | 0.00 | 0.00 | 44 | 992.8 |
| 20260506232247 | 51 | 269 | 1.0 | 6.0 | 0.00 | 0.00 | 0.00 | 43 | 992.9 |
| 20260506230745 | 51 | 333 | 4.0 | 6.0 | 0.00 | 0.00 | 0.00 | 42 | 992.9 |
| 20260506225242 | 51 | 307 | 4.0 | 7.0 | 0.00 | 0.00 | 0.00 | 41 | 992.9 |
| 20260506223738 | 53 | 261 | 6.0 | 10.0 | 0.00 | 0.00 | 0.00 | 41 | 992.8 |
| 20260506222238 | 52 | 279 | 2.0 | 6.0 | 0.00 | 0.00 | 0.00 | 41 | 992.9 |
| 20260506220737 | 54 | 257 | 7.0 | 9.0 | 0.00 | 0.00 | 0.00 | 38 | 992.9 |
| 20260506215236 | 54 | 275 | 4.0 | 9.0 | 0.00 | 0.00 | 0.00 | 40 | 992.6 |
| 20260506213734 | 54 | 294 | 7.0 | 9.0 | 0.00 | 0.00 | 0.00 | 39 | 992.7 |
| 20260506212229 | 55 | 239 | 5.0 | 11.0 | 0.00 | 0.00 | 0.00 | 40 | 992.7 |
| 20260506210724 | 56 | 252 | 4.0 | 9.0 | 0.00 | 0.00 | 0.00 | 40 | 992.8 |
| 20260506205219 | 55 | 248 | 8.0 | 10.0 | 0.00 | 0.00 | 0.00 | 39 | 993.0 |
| 20260506203718 | 54 | 193 | 3.0 | 9.0 | 0.00 | 0.00 | 0.00 | 41 | 993.1 |
| 20260506202214 | 53 | 333 | 8.0 | 16.0 | 0.00 | 0.00 | 0.00 | 40 | 993.1 |
| 20260506200711 | 53 | 222 | 1.0 | 9.0 | 0.00 | 0.00 | 0.00 | 37 | 993.1 |